Location: *
(28.3744°N, 81.5492°W)
Time: 03:20:20
(UTC+00:00)

SPOT 5 - Pass Details

Date: 15 June 2025
Orbit: 620 x 803 km, 98.0° (Epoch: 11 July)

Event Time Altitude Azimuth Distance (km) Brightness Sun altitude
Exits shadow 02:30:28 20° 216° (SW) 1,499 4.4 -23.1°
Maximum altitude 02:32:42 30° 263° (W) 1,159 4.2 -23.5°
Drops below altitude 10° 02:36:44 10° 324° (NW) 2,102 6.3 -24.1°
Sets 02:39:15 0° 335° (NNW) 3,051 7.3 -24.4°
